Change the Weather History Date:

Friday, January 11, 2013

  Actual Average (KMTC) Record (KMTC)
Temperature  
Mean Temperature 42 °F -  
Max Temperature 48 °F 28 °F 55 °F (2013)
Min Temperature 35 °F 15 °F -2 °F (1999)
Degree Days  
Heating Degree Days 24    
Moisture  
Dew Point 40 °F    
Average Humidity 93    
Maximum Humidity 100    
Minimum Humidity 81    
Precipitation  
Precipitation 0.00 in - - ()
Sea Level Pressure  
Sea Level Pressure 29.92 in    
Wind  
Wind Speed 8 mph (SSE)    
Max Wind Speed 14 mph    
Max Gust Speed 21 mph    
Visibility 6 miles    
Events Fog , Rain    
Averages and records for this station are not official NWS values.
T = Trace of Precipitation, MM = Missing Value Source: NWS Daily Summary

Daily Weather History Graph

Daily Weather History Graph

Search for Another Location

Airport or City:

Trip Planner

Search our weather history database for the weather conditions in past years. The results will help you decide how hot, cold, wet, or windy it might be!

Date:

Astronomy

Jan. 11, 2013 Rise Set
Actual Time 7:59 AM EST 5:16 PM EST
Civil Twilight 7:28 AM EST 5:48 PM EST
Nautical Twilight 6:53 AM EST 6:23 PM EST
Astronomical Twilight 6:18 AM EST 6:57 PM EST
Moon 7:30 AM EST (1/11) 5:34 PM EST (1/11)
Length of Visible Light 10h 20m
Length of Day
9h 17m
Waning Crescent, 0% of the Moon is Illuminated
Jan 11
Waning Crescent
Jan 11
New
Jan 18
First Quarter
Jan 26
Full
Feb 3
Last Quarter

Hourly Weather History & Observations

Time (EST) Temp. Windchill Dew Point Humidity Pressure Visibility Wind Dir Wind Speed Gust Speed Precip Events Conditions
12:17 AM 37.4 °F 31.4 °F 32.0 °F 81% 30.20 in 10.0 mi ESE 8.1 mph - N/A   Overcast
12:37 AM 37.4 °F 32.8 °F 32.0 °F 81% 30.20 in 10.0 mi ESE 5.8 mph - N/A   Overcast
12:57 AM 37.4 °F 34.9 °F 32.0 °F 81% 30.19 in 10.0 mi SE 3.5 mph - N/A Rain Light Rain
1:18 AM 37.4 °F 32.8 °F 32.0 °F 81% 30.18 in 10.0 mi ESE 5.8 mph - N/A Rain Light Rain
1:37 AM 37.4 °F 32.1 °F 32.0 °F 81% 30.16 in 10.0 mi ESE 6.9 mph - N/A   Overcast
1:57 AM 37.4 °F 32.8 °F 32.0 °F 81% 30.17 in 5.0 mi SE 5.8 mph - N/A Rain Rain
2:18 AM 37.4 °F 33.8 °F 32.0 °F 81% 30.17 in 4.0 mi SSE 4.6 mph - N/A Rain Rain
2:37 AM 35.6 °F 28.0 °F 33.8 °F 93% 30.16 in 4.0 mi ESE 10.4 mph - N/A Rain Light Rain
2:58 AM 35.6 °F 28.6 °F 33.8 °F 93% 30.14 in 4.0 mi East 9.2 mph - N/A Rain Light Rain
3:17 AM 35.6 °F 28.0 °F 33.8 °F 93% 30.12 in 5.0 mi ESE 10.4 mph - N/A Rain Rain
3:37 AM 37.4 °F 29.3 °F 33.8 °F 87% 30.09 in 4.0 mi ESE 12.7 mph - N/A Rain Rain
3:58 AM 37.4 °F 30.8 °F 33.8 °F 87% 30.09 in 5.0 mi SE 9.2 mph - N/A Rain Rain
4:17 AM 37.4 °F 30.8 °F 33.8 °F 87% 30.06 in 4.0 mi ESE 9.2 mph - N/A Rain Rain
4:38 AM 35.6 °F 29.9 °F 33.8 °F 93% 30.05 in 2.0 mi ESE 6.9 mph - N/A   Overcast
4:57 AM 37.4 °F 31.4 °F 35.6 °F 93% 30.04 in 5.0 mi ESE 8.1 mph - N/A Rain Rain
5:17 AM 37.4 °F 29.8 °F 35.6 °F 93% 30.01 in 5.0 mi ESE 11.5 mph - N/A Rain Light Rain
5:38 AM 37.4 °F 30.8 °F 33.8 °F 87% 29.99 in 10.0 mi ESE 9.2 mph - N/A Rain Light Rain
5:57 AM 37.4 °F 30.3 °F 33.8 °F 87% 29.99 in 10.0 mi SE 10.4 mph - N/A   Overcast
6:18 AM 37.4 °F 31.4 °F 33.8 °F 87% 29.99 in 10.0 mi SE 8.1 mph - N/A Rain Light Rain
6:37 AM 37.4 °F 30.8 °F 33.8 °F 87% 29.97 in 10.0 mi SE 9.2 mph - N/A   Overcast
6:57 AM 37.4 °F 30.8 °F 33.8 °F 87% 29.96 in 5.0 mi SE 9.2 mph - N/A Rain Rain
7:18 AM 37.4 °F 30.3 °F 33.8 °F 87% 29.95 in 10.0 mi SE 10.4 mph - N/A   Overcast
7:37 AM 37.4 °F 30.8 °F 33.8 °F 87% 29.95 in 7.0 mi SE 9.2 mph - N/A Rain Rain
7:58 AM 37.4 °F 29.3 °F 35.6 °F 93% 29.94 in 10.0 mi SE 12.7 mph 17.3 mph N/A Rain Light Rain
8:18 AM 37.4 °F 30.8 °F 35.6 °F 93% 29.95 in 4.0 mi SE 9.2 mph - N/A Rain Light Rain
8:37 AM 37.4 °F 30.3 °F 35.6 °F 93% 29.93 in 3.0 mi SE 10.4 mph - N/A Rain Light Rain
8:58 AM 39.2 °F 32.0 °F 37.4 °F 93% 29.91 in 7.0 mi SE 11.5 mph - N/A Rain Rain
9:17 AM 39.2 °F 31.6 °F 37.4 °F 93% 29.89 in 7.0 mi SE 12.7 mph - N/A   Light Drizzle
9:38 AM 41.0 °F 33.5 °F 39.2 °F 93% 29.87 in 7.0 mi SE 13.8 mph 20.7 mph N/A   Light Drizzle
9:58 AM 41.0 °F 33.5 °F 39.2 °F 93% 29.85 in 7.0 mi SE 13.8 mph 18.4 mph N/A   Overcast
10:17 AM 41.0 °F 34.7 °F 39.2 °F 93% 29.84 in 7.0 mi SSE 10.4 mph - N/A   Overcast
10:38 AM 41.0 °F 34.7 °F 41.0 °F 100% 29.80 in 7.0 mi SE 10.4 mph - N/A   Overcast
10:57 AM 42.8 °F 37.0 °F 41.0 °F 93% 29.83 in 7.0 mi SSE 10.4 mph - N/A   Overcast
11:17 AM 42.8 °F 38.0 °F 41.0 °F 93% 29.82 in 1.8 mi South 8.1 mph - N/A   Overcast
11:38 AM 42.8 °F 38.0 °F 41.0 °F 93% 29.84 in 3.0 mi South 8.1 mph - N/A   Overcast
11:57 AM 42.8 °F 37.5 °F 42.8 °F 100% 29.84 in 3.0 mi South 9.2 mph - N/A   Overcast
12:18 PM 42.8 °F 36.6 °F 42.8 °F 100% 29.82 in 2.0 mi South 11.5 mph - N/A   Overcast
12:37 PM 44.6 °F 38.8 °F 42.8 °F 93% 29.79 in 0.5 mi South 11.5 mph - N/A Fog Fog
12:57 PM 44.6 °F 39.7 °F 42.8 °F 93% 29.79 in 0.2 mi South 9.2 mph - N/A   Light Drizzle
1:18 PM 44.6 °F 39.2 °F 44.6 °F 100% 29.78 in 0.2 mi South 10.4 mph - N/A Rain Light Rain
1:37 PM 46.4 °F 41.1 °F 44.6 °F 93% 29.78 in 0.8 mi South 11.5 mph - N/A   Overcast
1:58 PM 46.4 °F 41.9 °F 46.4 °F 100% 29.77 in 1.8 mi South 9.2 mph - N/A   Overcast
2:17 PM 46.4 °F 42.4 °F 44.6 °F 93% 29.77 in 1.8 mi South 8.1 mph - N/A   Overcast
2:38 PM 46.4 °F 44.3 °F 46.4 °F 100% 29.78 in 1.2 mi South 4.6 mph - N/A   Overcast
2:57 PM 46.4 °F 42.9 °F 44.6 °F 93% 29.79 in 1.8 mi South 6.9 mph - N/A   Overcast
3:17 PM 46.4 °F 42.9 °F 46.4 °F 100% 29.79 in 3.0 mi South 6.9 mph - N/A   Overcast
3:38 PM 46.4 °F 43.5 °F 46.4 °F 100% 29.79 in 2.5 mi South 5.8 mph - N/A   Overcast
3:57 PM 46.4 °F 43.5 °F 46.4 °F 100% 29.79 in 3.0 mi South 5.8 mph - N/A   Overcast
4:18 PM 46.4 °F 44.3 °F 46.4 °F 100% 29.79 in 1.5 mi South 4.6 mph - N/A   Overcast
4:37 PM 46.4 °F 45.2 °F 46.4 °F 100% 29.80 in 1.5 mi South 3.5 mph - N/A   Overcast
4:58 PM 46.4 °F 44.3 °F 46.4 °F 100% 29.81 in 3.0 mi South 4.6 mph - N/A   Overcast
5:17 PM 48.2 °F - 46.4 °F 93% 29.82 in 2.5 mi South 3.5 mph - N/A   Overcast
5:37 PM 48.2 °F - 46.4 °F 93% 29.82 in 3.0 mi South 3.5 mph - N/A   Mostly Cloudy
5:58 PM 46.4 °F 45.2 °F 46.4 °F 100% 29.83 in 3.0 mi South 3.5 mph - N/A   Mostly Cloudy
6:17 PM 46.4 °F 45.2 °F 46.4 °F 100% 29.83 in 2.5 mi SSW 3.5 mph - N/A   Overcast
6:37 PM 44.6 °F 43.1 °F 44.6 °F 100% 29.84 in 0.8 mi South 3.5 mph - N/A   Mostly Cloudy
6:58 PM 44.6 °F 42.2 °F 44.6 °F 100% 29.84 in 1.2 mi South 4.6 mph - N/A   Mist
7:17 PM 46.4 °F 44.3 °F 46.4 °F 100% 29.85 in 5.0 mi SSW 4.6 mph - N/A   Clear
7:38 PM 46.4 °F 45.2 °F 46.4 °F 100% 29.86 in 7.0 mi SW 3.5 mph - N/A   Clear
7:57 PM 48.2 °F - 48.2 °F 100% 29.84 in 10.0 mi SSW 4.6 mph - N/A   Clear
8:18 PM 48.2 °F - 46.4 °F 93% 29.86 in 10.0 mi Calm Calm - N/A   Clear
8:38 PM 46.4 °F 45.2 °F 44.6 °F 93% 29.86 in 10.0 mi SSW 3.5 mph - N/A   Clear
8:57 PM 46.4 °F 44.3 °F 44.6 °F 93% 29.87 in 10.0 mi SSW 4.6 mph - N/A   Clear
9:18 PM 46.4 °F 44.3 °F 44.6 °F 93% 29.86 in 10.0 mi South 4.6 mph - N/A   Clear
9:37 PM 44.6 °F 41.4 °F 42.8 °F 93% 29.87 in 10.0 mi SW 5.8 mph - N/A   Clear
9:57 PM 46.4 °F 42.9 °F 44.6 °F 93% 29.86 in 10.0 mi SSW 6.9 mph - N/A   Clear
10:17 PM 48.2 °F - 44.6 °F 87% 29.87 in 10.0 mi SSW 8.1 mph - N/A   Clear
10:38 PM 46.4 °F 43.5 °F 44.6 °F 93% 29.88 in 7.0 mi SSW 5.8 mph - N/A   Clear
10:58 PM 46.4 °F 43.5 °F 44.6 °F 93% 29.86 in 5.0 mi South 5.8 mph - N/A   Clear
11:17 PM 46.4 °F 42.9 °F 44.6 °F 93% 29.88 in 5.0 mi SSW 6.9 mph - N/A   Clear
11:38 PM 46.4 °F 44.3 °F 44.6 °F 93% 29.87 in 7.0 mi SSW 4.6 mph - N/A   Clear
11:57 PM 46.4 °F 42.9 °F 44.6 °F 93% 29.86 in 10.0 mi South 6.9 mph - N/A   Clear